Location: Kaltenbach
(49.2000°N, 7.7500°E)
Time: 14:01:33
(UTC+00:00)

Daily predictions for brighter satellites

Satellite Brightness Start Highest point End
(mag) Time Altitude Azimuth Time Altitude Azimuth Time Altitude Azimuth
Cosmos 2074 Rocket 4.2 16:38:38 10° S 16:44:56 86° W 16:51:17 10° N
Cosmos 1626 Rocket 3.5 16:41:00 10° S 16:45:18 74° E 16:49:38 10° NNE
Cosmos 1674 4.2 16:42:50 10° SW 16:46:18 37° WNW 16:49:47 10° N
Starlink V 3.3 16:43:19 10° W 16:46:24 51° NNW 16:49:29 10° ENE
Starlink H 3.4 16:45:14 10° W 16:48:18 50° NNW 16:51:23 10° ENE
YAOGAN 6 3.3 16:45:43 10° SE 16:49:02 32° ENE 16:52:20 10° N
Cosmos 1269 Rocket 4.0 16:43:48 10° NNW 16:49:06 73° ENE 16:54:23 10° SSE
Starlink F 3.4 16:47:08 10° W 16:50:12 49° NNW 16:53:16 10° ENE
USA 267 3.3 16:43:58 10° ENE 16:50:33 83° SE 16:57:07 10° SW
IRS-1C Rocket 4.1 16:46:37 10° SSE 16:51:53 88° ENE 16:57:11 10° NNW
Starlink G 3.4 16:49:01 10° W 16:52:05 48° NNW 16:55:10 10° ENE
NOAA 12 4.1 16:47:06 10° SSE 16:52:16 65° ENE 16:57:29 10° N
Starlink L 3.4 16:50:55 10° W 16:53:59 48° NNW 16:57:02 10° ENE
AQUARIUS 4.2 16:50:42 10° SSE 16:55:11 90° WSW 16:59:44 10° NNW
Starlink A 3.4 16:52:50 10° W 16:55:54 47° NNW 16:58:52 11° ENE
Cosmos 1939 Rocket 4.3 16:54:05 10° ESE 16:56:44 18° ENE 16:59:26 10° NNE
Cosmos 1626 2.1 16:53:07 10° S 16:56:49 88° W 17:00:34 10° N
Starlink R 3.5 16:54:45 10° W 16:57:49 47° NNW 17:00:42 11° ENE
SJ 16-02 3.9 16:56:50 10° W 16:59:21 15° NW 17:01:53 10° NNW
Starlink K 3.5 16:56:38 10° W 16:59:41 46° NNW 17:02:31 12° ENE
Cosmos 1607 4.3 16:55:19 10° SW 17:01:25 65° NW 17:07:35 10° NE
Starlink M 3.5 16:58:30 10° W 17:01:35 46° N 17:04:19 12° ENE
Cosmos 1300 3.3 16:58:15 10° NNW 17:02:02 62° W 17:05:47 10° S
Cosmos 494 Rocket 4.4 16:58:37 10° NNW 17:03:43 69° WSW 17:08:48 10° SSE
Okean O Rocket 3.9 17:00:04 10° SSW 17:03:58 30° W 17:07:54 10° NNW
Cosmos 2237 Rocket 2.3 16:59:06 10° NNW 17:04:46 84° WSW 17:10:23 10° SSE
Cosmos 1825 Rocket 4.0 17:01:38 10° SSE 17:05:38 38° E 17:09:39 10° NNE
Nadezhda 3 Rocket 4.2 16:59:19 10° N 17:05:38 84° W 17:11:59 10° S
ATLAS CENTAUR R/B 4.0 17:00:35 10° WSW 17:06:04 69° NNW 17:21:12 11° ENE
PSLV R/B 4.1 17:02:40 10° NNE 17:06:46 77° WNW 17:10:51 10° SSW
Starlink AR 3.4 17:04:46 10° WNW 17:07:11 35° N 17:09:01 15° NE
SMAP 3.6 17:02:44 10° S 17:07:21 64° WSW 17:12:00 10° NNW
Okean-O 2.6 17:04:13 10° SSE 17:08:36 69° ENE 17:13:03 10° N
NOSS 2-1 (C) 4.4 17:03:36 10° NW 17:08:45 86° NE 17:16:01 10° SE
Meteor 2-17 Rocket 4.5 17:02:48 10° S 17:08:53 67° E 17:14:59 10° NNE
ATLAS 5 CENTAUR R/B 3.4 17:08:21 10° W 17:12:05 24° NNW 17:16:15 10° NNE
CSL-04 Rocket 4.2 17:07:11 10° SE 17:12:16 39° ENE 17:17:24 10° N
NOSS 2-1 (D) 4.4 17:07:25 10° NW 17:12:35 90° WSW 17:19:54 10° SE
Starlink AS 3.5 17:10:39 10° W 17:13:27 39° N 17:15:26 16° ENE
Starlink BA 3.5 17:11:02 10° W 17:13:50 39° N 17:15:49 16° ENE
Starlink AU 3.5 17:11:16 10° W 17:14:04 39° N 17:16:02 17° ENE
Starlink AT 3.5 17:11:29 10° W 17:14:16 39° N 17:16:14 17° ENE
Starlink BB 3.5 17:11:43 10° W 17:14:30 39° N 17:16:27 17° ENE
Starlink BC 3.5 17:11:56 10° W 17:14:45 39° N 17:16:41 17° ENE
Starlink BK 3.5 17:12:10 10° W 17:14:58 39° N 17:16:54 17° ENE
Starlink AY 3.5 17:12:25 10° W 17:15:12 39° N 17:17:07 17° ENE
Starlink AW 3.5 17:12:38 10° W 17:15:25 39° N 17:17:19 17° ENE
Shenzhou-11 Module 4.1 17:13:49 10° SSW 17:15:25 15° SSE 17:17:01 10° SE
Starlink BJ 3.5 17:12:52 10° W 17:15:38 39° N 17:17:33 17° ENE
Starlink AV 3.5 17:13:04 10° W 17:15:52 39° N 17:17:45 17° ENE
Cosmos 1455 2.6 17:12:24 10° N 17:16:02 40° ENE 17:19:36 10° SE
Starlink BD 3.5 17:13:17 10° W 17:16:06 39° N 17:17:58 17° ENE
Starlink BE 3.5 17:13:29 10° W 17:16:18 39° N 17:18:12 17° ENE
Starlink BM 3.5 17:13:44 10° W 17:16:32 39° N 17:18:24 18° NE
Starlink AQ 3.5 17:13:43 10° W 17:16:33 39° N 17:18:26 17° ENE
Starlink AX 3.5 17:14:00 10° W 17:16:47 39° N 17:18:38 18° NE
Starlink BH 3.5 17:14:13 10° W 17:17:00 39° N 17:18:51 18° NE
Starlink AZ 3.5 17:14:26 10° W 17:17:13 39° N 17:19:03 18° NE
Ariane Rocket 4.2 17:13:35 10° ESE 17:17:18 21° ENE 17:21:03 10° N
Starlink BG 3.5 17:14:39 10° W 17:17:26 39° N 17:19:16 18° NE
Starlink BF 3.5 17:14:53 10° W 17:17:41 39° N 17:19:30 18° NE
Starlink BL 3.5 17:15:05 10° W 17:17:54 39° N 17:19:44 18° NE
CZ-4C R/B 4.2 17:11:04 10° NW 17:17:56 46° WSW 17:25:41 10° S
Starlink AH 3.5 17:15:20 10° WNW 17:18:08 39° N 17:19:55 18° NE
Starlink AC 3.5 17:15:34 10° WNW 17:18:22 39° N 17:20:09 18° NE
Starlink X 3.5 17:15:48 10° WNW 17:18:35 39° N 17:20:22 18° NE
Starlink AE 3.5 17:15:58 10° WNW 17:18:48 39° N 17:20:36 18° NE
CZ-2D R/B 4.2 17:15:39 10° SE 17:18:54 27° ENE 17:22:11 10° N
Starlink Z 3.5 17:16:14 10° WNW 17:19:01 39° N 17:20:47 18° NE
Starlink AK 3.5 17:16:21 10° WNW 17:19:08 39° N 17:20:53 19° NE
Starlink AL 3.5 17:16:42 10° WNW 17:19:29 38° N 17:21:14 19° NE
Starlink AD 3.5 17:16:47 10° WNW 17:19:35 38° N 17:21:19 19° NE
ATLAS 5 CENTAUR R/B 3.7 17:16:09 10° NNW 17:19:38 32° NE 17:28:16 11° E
Starlink Y 3.5 17:17:23 10° WNW 17:20:10 38° N 17:21:53 19° NE
Starlink AG 3.5 17:17:37 10° WNW 17:20:24 38° N 17:22:07 19° NE
Starlink W 3.5 17:17:41 10° WNW 17:20:29 39° N 17:22:12 19° NE
Starlink AJ 3.5 17:18:02 10° WNW 17:20:49 38° N 17:22:31 19° NE
Starlink AM 3.5 17:18:29 10° WNW 17:21:16 38° N 17:22:56 19° NE
Starlink AP 3.5 17:18:42 10° WNW 17:21:29 38° N 17:23:09 20° NE
Starlink AA 3.5 17:18:56 10° WNW 17:21:44 38° N 17:23:22 20° NE
Starlink AF 3.5 17:19:10 10° WNW 17:21:57 38° N 17:23:35 20° NE
Starlink AB 3.5 17:19:24 10° WNW 17:22:11 38° N 17:23:49 20° NE
Starlink AN 3.5 17:19:38 10° WNW 17:22:25 38° N 17:24:03 20° NE
Cosmos 2221 3.9 17:21:53 10° NNE 17:24:48 18° ENE 17:25:04 17° ENE
SKYMED 2 3.8 17:21:17 10° NNE 17:25:32 50° E 17:29:45 10° S
SL-8 Rocket 4.1 17:19:46 10° SSE 17:25:52 54° E 17:31:57 10° NNE
USA 234 4.0 17:20:05 10° SE 17:26:30 57° SW 17:32:56 10° WNW
ISS -3.0 17:25:04 10° SW 17:28:15 39° SSE 17:30:00 21° E
SL-16 R/B 2.2 17:22:55 10° NNW 17:28:35 63° ENE 17:34:12 10° SE
ATLAS CENTAUR R/B 1.7 17:25:43 10° NNW 17:29:38 39° NE 17:32:08 18° ESE
Cosmos-2242 2.9 17:27:32 10° N 17:31:54 79° E 17:36:10 10° SSE
CZ-4 R/B 1.4 17:27:57 10° SSE 17:31:59 63° ENE 17:36:07 10° N
Cosmos 2219 3.3 17:31:46 10° SSW 17:37:24 79° WNW 17:43:05 10° NNE
Cosmos 2341 Rocket 4.0 17:31:51 10° S 17:38:14 87° E 17:44:37 10° N
Cosmos 2082 4.0 17:33:06 10° S 17:38:25 46° ESE 17:42:52 15° NE
YAOGAN 1 2.5 17:39:47 10° SSE 17:44:04 67° ENE 17:48:23 10° N
Iridium 96 3.7 17:42:02 10° N 17:44:23 71° W 17:46:51 10° S
Cosmos 2297 Rocket 2.2 17:40:31 10° SSW 17:46:11 88° ESE 17:51:50 10° NNE
H-2A R/B 3.1 17:49:40 22° NE 17:49:40 22° NE 17:53:18 10° N
Cosmos 2251 Rocket 3.4 17:44:16 10° NNW 17:49:34 71° ENE 17:54:53 10° SSE
Cosmos 1328 3.8 17:47:29 10° S 17:51:27 61° E 17:55:21 11° NNE
ADEOS Rocket 3.8 17:45:24 10° NNE 17:51:32 37° E 17:58:11 10° SSE
Meteor 1-21 Rocket 4.4 17:46:12 10° SSW 17:51:49 78° WNW 17:57:36 10° N
Starlink T 3.6 17:50:15 10° WNW 17:53:10 38° N 17:53:41 35° NNE
Meteor 2-10 Rocket 3.6 17:48:47 10° NNW 17:54:09 83° W 17:59:16 10° S
Cosmos 1356 Rocket 3.4 17:50:16 10° N 17:54:14 52° ENE 17:58:13 10° SSE
Starlink N 3.6 17:51:56 10° WNW 17:54:52 38° N 17:55:18 36° NNE
Starlink Q 3.6 17:53:53 10° WNW 17:56:50 38° N 17:57:11 37° NNE
ERBS 2.8 17:54:29 10° WSW 17:57:45 52° NNW 17:58:46 36° NNE
SL-8 R/B 4.0 17:53:16 10° SW 17:57:58 53° SSE 17:59:55 32° E
Starlink P 3.6 17:55:40 10° WNW 17:58:37 38° N 17:58:54 37° NNE
Cosmos 2227 Rocket 2.2 17:53:24 10° SSW 17:59:03 82° WNW 18:04:16 13° NNE
Starlink U 3.6 17:57:27 10° WNW 18:00:23 38° N 18:00:36 38° NNE
NOAA 11 4.1 17:55:03 10° SSE 18:00:32 85° ENE 18:06:04 10° NNW
Cosmos 1339 Rocket 4.5 17:54:45 10° N 18:00:52 83° W 18:07:00 10° S
ARGOS 4.1 18:02:02 26° NE 18:02:02 26° NE 18:06:02 10° N
Starlink B 3.6 17:59:14 10° WNW 18:02:11 38° N 18:02:20 38° N
Cosmos 864 Rocket 4.3 17:57:15 10° S 18:03:20 76° E 18:09:30 10° NNE
Cosmos 2218 Rocket 4.0 17:58:45 10° S 18:05:06 85° E 18:11:33 10° N
IRS-1A Rocket 4.4 18:01:30 10° SE 18:07:00 49° ENE 18:12:25 10° N
SL-08 R/B 4.5 18:01:07 10° S 18:07:19 62° E 18:13:39 10° NNE
Starlink D 3.8 18:10:16 10° WNW 18:12:57 38° NNW 18:12:57 38° NNW
COSMO-SKYMED 1 3.2 18:09:24 10° N 18:13:39 55° WNW 18:17:54 10° SSW
Cosmos 1943 3.7 18:08:41 10° NNW 18:13:56 37° NE 18:14:37 36° ENE
Cosmos 1953 Rocket 4.0 18:10:34 10° SSW 18:15:00 64° WNW 18:19:30 10° N
Starlink S 3.8 18:12:09 10° WNW 18:14:46 38° NNW 18:14:46 38° NNW
Starlink C 3.9 18:13:58 10° WNW 18:16:31 37° NNW 18:16:31 37° NNW
Cosmos 1842 Rocket 3.5 18:13:05 10° N 18:17:35 69° E 18:22:02 10° SSE
Starlink E 4.0 18:15:52 10° WNW 18:18:20 36° NNW 18:18:20 36° NNW
SJ-11-01 4.4 18:18:29 46° E 18:19:14 50° ENE 18:23:48 10° N
Starlink J 4.0 18:17:46 10° WNW 18:20:09 36° NNW 18:20:09 36° NNW
Cosmos 2123 Rocket 4.5 18:16:23 10° N 18:22:05 37° ENE 18:22:05 37° ENE
Starlink V 4.1 18:19:37 10° WNW 18:21:57 35° NNW 18:21:57 35° NNW
Starlink H 4.2 18:21:32 10° WNW 18:23:47 34° NNW 18:23:47 34° NNW
Cosmos 1703 3.8 18:21:28 10° SSW 18:25:23 59° WNW 18:28:43 14° N
Cosmos 44 3.2 18:21:29 10° SW 18:26:02 72° NW 18:27:20 44° NNE
Starlink F 4.3 18:23:26 10° WNW 18:25:37 33° NW 18:25:37 33° NW
Starlink G 4.4 18:25:20 10° WNW 18:27:27 32° NW 18:27:27 32° NW
Starlink L 4.4 18:27:14 10° WNW 18:29:16 31° NW 18:29:16 31° NW
Cosmos 1939 Rocket 3.6 18:27:28 10° S 18:31:18 51° W 18:35:13 10° NNW
CZ-2C R/B 3.9 18:32:42 35° NE 18:32:42 35° NE 18:36:45 10° N
Cosmos 1000 Rocket 4.4 18:25:21 10° N 18:31:32 65° ENE 18:37:44 10° SSE
Cosmos 407 Rocket 3.8 18:27:48 10° NNW 18:32:32 47° NE 18:32:32 47° NE
USA 267 3.7 18:30:18 30° NE 18:33:22 53° NNW 18:39:40 10° W
BREEZE-M DEB (TANK) 4.1 18:34:00 10° WSW 18:35:08 27° WSW 18:35:08 27° WSW
Cosmos 2366 rocket 4.4 18:30:13 10° SSW 18:36:22 63° WNW 18:42:39 10° N
Meteor 2-12 Rocket 4.3 18:33:06 10° S 18:39:08 83° E 18:45:13 10° NNE
BREEZE-M DEB (TANK) 3.9 18:25:23 10° W 18:41:51 89° N 18:43:09 55° E
Ariane Rocket 3.2 18:50:45 10° S 18:55:47 68° WSW 19:00:54 10° NNW
ATLAS 5 CENTAUR R/B 3.9 18:55:15 10° NW 18:58:31 17° N 18:58:32 17° N
Cosmos 2221 3.3 18:58:32 10° NNW 19:02:04 48° WNW 19:02:04 48° WNW
ISS -1.2 19:01:36 10° W 19:02:59 22° W 19:02:59 22° W
ATLAS CENTAUR R/B 3.1 19:04:58 10° WNW 19:08:22 28° WSW 19:08:22 28° WSW
SL-16 R/B 4.3 19:07:46 10° NW 19:12:15 24° WSW 19:16:42 10° SSW
Cosmos 1603 4.1 19:19:49 10° NW 19:25:18 60° WSW 19:25:18 60° WSW
H-2A R/B 3.2 19:30:16 37° NW 19:30:16 37° NW 19:33:28 10° NNW
Cosmos 2297 Rocket 4.2 19:26:39 10° W 19:31:01 22° NW 19:33:40 16° N
ADEOS Rocket 3.9 19:30:51 10° N 19:37:11 52° WNW 19:44:09 10° SW
Cosmos 2263 Rocket 4.3 19:35:34 10° SSW 19:36:32 15° SSW 19:36:32 15° SSW
ARGOS 4.4 19:43:31 36° NW 19:43:31 36° NW 19:46:52 10° NNW
Cosmos 2227 Rocket 4.3 19:39:52 10° W 19:44:01 20° NW 19:46:06 17° N
USA 267 4.4 20:17:39 37° NW 20:17:39 37° NW 20:21:57 10° WNW
